Terminal Aerodrome Forecast
Issued by NWS

Home | Current Version | Previous Version | Text Only | Print | Product List | Glossary On
Versions: 1 2 3 4 5 6 7 8 9 10 11 12 13 14 15 16 17 18 19 20 21
000
FTUS43 KMQT 312320
TAFIWD
TAF
KIWD 312320Z 0100/0124 03009KT 6SM -SHSN OVC025
     FM010500 06008KT 6SM -SHSN OVC025
     FM011100 06005KT P6SM BKN020
      AMD LTD TO CLD VIS AND WIND=

USA.gov is the U.S. government's official web portal to all federal, state and local government web resources and services.